| time (UTC) | temp F | wind direction | speed MPH | gust MPH | rain 1hr in | rain 24hr in | rain mn in | humidity % | barometer mb |
| 20260505024807 | 48 | 26 | 6.0 | 7.0 | 0.00 | 0.00 | 0.00 | 36 | 1017.5 |
| 20260505024304 | 49 | 38 | 11.0 | 13.0 | 0.00 | 0.00 | 0.00 | 35 | 1017.4 |
| 20260505023801 | 49 | 23 | 7.0 | 8.0 | 0.00 | 0.00 | 0.00 | 32 | 1017.4 |
| 20260505023258 | 49 | 16 | 4.0 | 5.0 | 0.00 | 0.00 | 0.00 | 32 | 1017.4 |
| 20260505022755 | 50 | 25 | 5.0 | 7.0 | 0.00 | 0.00 | 0.00 | 31 | 1017.3 |
| 20260505022252 | 50 | 22 | 7.0 | 10.0 | 0.00 | 0.00 | 0.00 | 30 | 1017.1 |
| 20260505021749 | 51 | 19 | 7.0 | 9.0 | 0.00 | 0.00 | 0.00 | 28 | 1017.2 |
| 20260505021246 | 51 | 20 | 8.0 | 8.0 | 0.00 | 0.00 | 0.00 | 29 | 1016.8 |
| 20260505020742 | 51 | 15 | 13.0 | 17.0 | 0.00 | 0.00 | 0.00 | 27 | 1016.7 |
| 20260505020237 | 52 | 23 | 6.0 | 7.0 | 0.00 | 0.00 | 0.00 | 27 | 1016.8 |
| 20260505015735 | 52 | 12 | 7.0 | 10.0 | 0.00 | 0.00 | 0.00 | 25 | 1016.7 |
| 20260505015231 | 53 | 9 | 7.0 | 9.0 | 0.00 | 0.00 | 0.00 | 26 | 1016.7 |
| 20260505014728 | 53 | 18 | 9.0 | 10.0 | 0.00 | 0.00 | 0.00 | 25 | 1016.6 |
| 20260505014226 | 54 | 355 | 9.0 | 11.0 | 0.00 | 0.00 | 0.00 | 24 | 1016.6 |
| 20260505013722 | 54 | 354 | 8.0 | 10.0 | 0.00 | 0.00 | 0.00 | 23 | 1016.3 |
| 20260505013219 | 54 | 9 | 5.0 | 6.0 | 0.00 | 0.00 | 0.00 | 24 | 1016.4 |
| 20260505012718 | 55 | 354 | 6.0 | 8.0 | 0.00 | 0.00 | 0.00 | 24 | 1016.5 |
| 20260505012215 | 55 | 352 | 4.0 | 6.0 | 0.00 | 0.00 | 0.00 | 24 | 1016.5 |
| 20260505011710 | 55 | 357 | 5.0 | 7.0 | 0.00 | 0.00 | 0.00 | 24 | 1016.3 |
| 20260505011208 | 55 | 355 | 7.0 | 11.0 | 0.00 | 0.00 | 0.00 | 24 | 1016.7 |
| 20260505010703 | 55 | 15 | 12.0 | 15.0 | 0.00 | 0.00 | 0.00 | 24 | 1016.7 |
| 20260505010200 | 55 | 348 | 5.0 | 7.0 | 0.00 | 0.00 | 0.00 | 24 | 1016.5 |
| 20260505005656 | 56 | 12 | 8.0 | 10.0 | 0.00 | 0.00 | 0.00 | 23 | 1016.6 |
| 20260505005153 | 55 | 2 | 5.0 | 7.0 | 0.00 | 0.00 | 0.00 | 24 | 1016.6 |
| 20260505004650 | 56 | 327 | 3.0 | 3.0 | 0.00 | 0.00 | 0.00 | 25 | 1016.7 |
| 20260505004147 | 56 | 352 | 4.0 | 5.0 | 0.00 | 0.00 | 0.00 | 24 | 1016.6 |
| 20260505003644 | 55 | 13 | 9.0 | 13.0 | 0.00 | 0.00 | 0.00 | 24 | 1016.8 |
| 20260505003142 | 56 | 319 | 3.0 | 5.0 | 0.00 | 0.00 | 0.00 | 24 | 1016.6 |
| 20260505002637 | 56 | 16 | 12.0 | 15.0 | 0.00 | 0.00 | 0.00 | 24 | 1016.6 |
| 20260505002136 | 57 | 352 | 4.0 | 6.0 | 0.00 | 0.00 | 0.00 | 24 | 1016.7 |
| 20260505001633 | 57 | 20 | 7.0 | 10.0 | 0.00 | 0.00 | 0.00 | 24 | 1016.5 |
| 20260505001130 | 57 | 14 | 9.0 | 11.0 | 0.00 | 0.00 | 0.00 | 25 | 1016.6 |
| 20260505000627 | 56 | 1 | 12.0 | 14.0 | 0.00 | 0.00 | 0.00 | 24 | 1016.6 |
| 20260505000125 | 56 | 22 | 5.0 | 7.0 | 0.00 | 0.00 | 0.00 | 25 | 1016.7 |
| 20260504235621 | 56 | 9 | 7.0 | 8.0 | 0.00 | 0.00 | 0.00 | 24 | 1016.7 |
| 20260504235118 | 57 | 351 | 3.0 | 3.0 | 0.00 | 0.00 | 0.00 | 25 | 1016.7 |
| 20260504234615 | 56 | 12 | 8.0 | 10.0 | 0.00 | 0.00 | 0.00 | 25 | 1016.8 |
| 20260504234112 | 58 | 356 | 8.0 | 9.0 | 0.00 | 0.00 | 0.00 | 25 | 1016.7 |
| 20260504233608 | 58 | 9 | 11.0 | 14.0 | 0.00 | 0.00 | 0.00 | 24 | 1016.7 |
| 20260504233104 | 58 | 347 | 4.0 | 5.0 | 0.00 | 0.00 | 0.00 | 26 | 1016.6 |
| 20260504232602 | 57 | 4 | 6.0 | 9.0 | 0.00 | 0.00 | 0.00 | 26 | 1016.7 |
| 20260504232059 | 57 | 355 | 9.0 | 13.0 | 0.00 | 0.00 | 0.00 | 26 | 1016.6 |
| 20260504231555 | 57 | 10 | 20.0 | 25.0 | 0.00 | 0.00 | 0.00 | 27 | 1016.6 |
| 20260504231051 | 55 | 13 | 11.0 | 14.0 | 0.00 | 0.00 | 0.00 | 29 | 1016.7 |
| 20260504230547 | 56 | 10 | 11.0 | 14.0 | 0.00 | 0.00 | 0.00 | 30 | 1016.8 |
| 20260504230047 | 55 | 13 | 9.0 | 13.0 | 0.00 | 0.00 | 0.00 | 31 | 1016.8 |
| 20260504225543 | 55 | 5 | 6.0 | 9.0 | 0.00 | 0.00 | 0.00 | 32 | 1016.6 |
| 20260504225041 | 54 | 359 | 6.0 | 8.0 | 0.00 | 0.00 | 0.00 | 32 | 1016.8 |
| 20260504224537 | 54 | 0 | 7.0 | 10.0 | 0.00 | 0.00 | 0.00 | 34 | 1016.9 |
| 20260504224034 | 54 | 20 | 12.0 | 15.0 | 0.00 | 0.00 | 0.00 | 32 | 1016.8 |
| 20260504223531 | 54 | 337 | 7.0 | 9.0 | 0.00 | 0.00 | 0.00 | 33 | 1016.8 |
| 20260504223027 | 55 | 333 | 7.0 | 8.0 | 0.00 | 0.00 | 0.00 | 32 | 1017.1 |
| 20260504222524 | 55 | 5 | 7.0 | 8.0 | 0.00 | 0.00 | 0.00 | 33 | 1016.9 |
| 20260504222021 | 55 | 8 | 7.0 | 9.0 | 0.00 | 0.00 | 0.00 | 33 | 1016.8 |
| 20260504221518 | 55 | 349 | 5.0 | 8.0 | 0.00 | 0.00 | 0.00 | 33 | 1016.8 |
| 20260504221015 | 55 | 317 | 6.0 | 8.0 | 0.00 | 0.00 | 0.00 | 33 | 1016.9 |
| 20260504220512 | 55 | 6 | 7.0 | 8.0 | 0.00 | 0.00 | 0.00 | 33 | 1016.8 |
| 20260504220009 | 55 | 8 | 11.0 | 14.0 | 0.00 | 0.00 | 0.00 | 33 | 1017.1 |
| 20260504215505 | 55 | 2 | 8.0 | 11.0 | 0.00 | 0.00 | 0.00 | 33 | 1016.9 |
| 20260504215003 | 55 | 353 | 7.0 | 8.0 | 0.00 | 0.00 | 0.00 | 32 | 1016.8 |
| 20260504214458 | 55 | 12 | 5.0 | 7.0 | 0.00 | 0.00 | 0.00 | 32 | 1016.7 |
| 20260504213955 | 56 | 24 | 19.0 | 25.0 | 0.00 | 0.00 | 0.00 | 30 | 1016.7 |
| 20260504213451 | 57 | 17 | 8.0 | 11.0 | 0.00 | 0.00 | 0.00 | 31 | 1016.8 |
| 20260504212949 | 56 | 357 | 9.0 | 10.0 | 0.00 | 0.00 | 0.00 | 31 | 1016.9 |
| 20260504212444 | 57 | 8 | 9.0 | 11.0 | 0.00 | 0.00 | 0.00 | 31 | 1016.8 |
| 20260504211942 | 57 | 15 | 12.0 | 14.0 | 0.00 | 0.00 | 0.00 | 30 | 1016.8 |
| 20260504211438 | 57 | 353 | 14.0 | 16.0 | 0.00 | 0.00 | 0.00 | 29 | 1016.8 |
| 20260504210936 | 57 | 12 | 15.0 | 21.0 | 0.00 | 0.00 | 0.00 | 29 | 1016.7 |
| 20260504210433 | 57 | 7 | 12.0 | 15.0 | 0.00 | 0.00 | 0.00 | 30 | 1016.8 |
| 20260504205930 | 57 | 319 | 8.0 | 11.0 | 0.00 | 0.00 | 0.00 | 29 | 1016.8 |
| 20260504205427 | 56 | 15 | 9.0 | 10.0 | 0.00 | 0.00 | 0.00 | 30 | 1016.7 |
| 20260504204925 | 57 | 1 | 9.0 | 16.0 | 0.00 | 0.00 | 0.00 | 30 | 1016.6 |
| 20260504204423 | 57 | 5 | 7.0 | 10.0 | 0.00 | 0.00 | 0.00 | 32 | 1016.7 |
| 20260504203922 | 56 | 7 | 9.0 | 11.0 | 0.00 | 0.00 | 0.00 | 31 | 1016.8 |
| 20260504203420 | 58 | 332 | 8.0 | 11.0 | 0.00 | 0.00 | 0.00 | 30 | 1016.7 |
| 20260504202915 | 57 | 353 | 4.0 | 6.0 | 0.00 | 0.00 | 0.00 | 32 | 1016.6 |
| 20260504202412 | 59 | 2 | 7.0 | 8.0 | 0.00 | 0.00 | 0.00 | 30 | 1016.8 |
| 20260504201909 | 57 | 359 | 12.0 | 16.0 | 0.00 | 0.00 | 0.00 | 30 | 1016.5 |
| 20260504201406 | 56 | 24 | 9.0 | 10.0 | 0.00 | 0.00 | 0.00 | 31 | 1016.6 |
| 20260504200903 | 57 | 357 | 19.0 | 24.0 | 0.00 | 0.00 | 0.00 | 30 | 1016.4 |
| 20260504200400 | 57 | 22 | 6.0 | 9.0 | 0.00 | 0.00 | 0.00 | 31 | 1016.5 |
| 20260504195857 | 58 | 328 | 6.0 | 8.0 | 0.00 | 0.00 | 0.00 | 31 | 1016.6 |
| 20260504195352 | 57 | 327 | 6.0 | 9.0 | 0.00 | 0.00 | 0.00 | 31 | 1016.5 |
| 20260504194849 | 59 | 330 | 8.0 | 13.0 | 0.00 | 0.00 | 0.00 | 30 | 1016.6 |
| 20260504194345 | 57 | 10 | 5.0 | 7.0 | 0.00 | 0.00 | 0.00 | 32 | 1016.5 |
| 20260504193841 | 57 | 357 | 13.0 | 15.0 | 0.00 | 0.00 | 0.00 | 31 | 1016.7 |
| 20260504193339 | 58 | 332 | 7.0 | 9.0 | 0.00 | 0.00 | 0.00 | 31 | 1016.6 |
| 20260504192838 | 58 | 2 | 14.0 | 17.0 | 0.00 | 0.00 | 0.00 | 30 | 1016.7 |
| 20260504192335 | 59 | 6 | 7.0 | 8.0 | 0.00 | 0.00 | 0.00 | 30 | 1016.7 |
| 20260504191833 | 59 | 0 | 7.0 | 10.0 | 0.00 | 0.00 | 0.00 | 31 | 1016.6 |
| 20260504191330 | 58 | 348 | 9.0 | 10.0 | 0.00 | 0.00 | 0.00 | 30 | 1016.7 |
| 20260504190826 | 58 | 342 | 13.0 | 18.0 | 0.00 | 0.00 | 0.00 | 30 | 1016.6 |
| 20260504190322 | 59 | 1 | 4.0 | 6.0 | 0.00 | 0.00 | 0.00 | 33 | 1016.7 |
| 20260504185819 | 59 | 355 | 5.0 | 5.0 | 0.00 | 0.00 | 0.00 | 30 | 1016.8 |
| 20260504185316 | 58 | 347 | 6.0 | 8.0 | 0.00 | 0.00 | 0.00 | 30 | 1016.7 |
| 20260504184812 | 59 | 336 | 8.0 | 9.0 | 0.00 | 0.00 | 0.00 | 31 | 1016.7 |
| 20260504184308 | 58 | 340 | 7.0 | 10.0 | 0.00 | 0.00 | 0.00 | 33 | 1016.8 |
| 20260504183803 | 58 | 330 | 7.0 | 8.0 | 0.00 | 0.00 | 0.00 | 32 | 1016.8 |
| 20260504183301 | 59 | 356 | 9.0 | 11.0 | 0.00 | 0.00 | 0.00 | 32 | 1016.8 |
| 20260504182759 | 59 | 330 | 8.0 | 10.0 | 0.00 | 0.00 | 0.00 | 33 | 1016.7 |
| 20260504182255 | 58 | 356 | 5.0 | 6.0 | 0.00 | 0.00 | 0.00 | 34 | 1017.1 |
| 20260504181753 | 59 | 331 | 9.0 | 10.0 | 0.00 | 0.00 | 0.00 | 32 | 1016.8 |
| 20260504181250 | 58 | 357 | 9.0 | 13.0 | 0.00 | 0.00 | 0.00 | 32 | 1016.8 |
| 20260504180749 | 58 | 342 | 9.0 | 13.0 | 0.00 | 0.00 | 0.00 | 32 | 1017.1 |
| 20260504180248 | 59 | 6 | 8.0 | 11.0 | 0.00 | 0.00 | 0.00 | 33 | 1016.8 |
| 20260504175745 | 57 | 17 | 11.0 | 14.0 | 0.00 | 0.00 | 0.00 | 33 | 1016.9 |
| 20260504175242 | 56 | 12 | 6.0 | 8.0 | 0.00 | 0.00 | 0.00 | 35 | 1017.1 |
| 20260504174739 | 56 | 353 | 10.0 | 16.0 | 0.00 | 0.00 | 0.00 | 34 | 1017.1 |
| 20260504174237 | 56 | 6 | 12.0 | 17.0 | 0.00 | 0.00 | 0.00 | 36 | 1017.2 |
| 20260504173733 | 56 | 333 | 7.0 | 10.0 | 0.00 | 0.00 | 0.00 | 36 | 1016.9 |
| 20260504173231 | 57 | 344 | 6.0 | 7.0 | 0.00 | 0.00 | 0.00 | 36 | 1016.9 |
| 20260504172727 | 57 | 10 | 12.0 | 14.0 | 0.00 | 0.00 | 0.00 | 34 | 1016.9 |
| 20260504172224 | 56 | 335 | 6.0 | 7.0 | 0.00 | 0.00 | 0.00 | 35 | 1016.9 |
| 20260504171720 | 55 | 22 | 5.0 | 8.0 | 0.00 | 0.00 | 0.00 | 38 | 1017.1 |
| 20260504171217 | 55 | 343 | 5.0 | 7.0 | 0.00 | 0.00 | 0.00 | 41 | 1017.1 |
| 20260504170714 | 55 | 357 | 5.0 | 7.0 | 0.00 | 0.00 | 0.00 | 40 | 1017.1 |
| 20260504170212 | 55 | 0 | 5.0 | 6.0 | 0.00 | 0.00 | 0.00 | 41 | 1016.9 |
| 20260504160130 | 53 | 327 | 3.0 | 5.0 | 0.00 | 0.00 | 0.00 | 45 | 1017.2 |
| 20260504151057 | 50 | 309 | 3.0 | 5.0 | 0.00 | 0.00 | 0.00 | 57 | 1017.2 |
| 20260504150555 | 50 | 320 | 3.0 | 3.0 | 0.00 | 0.00 | 0.00 | 57 | 1017.3 |
| 20260504141020 | 48 | 298 | 2.0 | 2.0 | 0.00 | 0.00 | 0.00 | 62 | 1017.4 |
| 20260504140517 | 48 | 292 | 2.0 | 2.0 | 0.00 | 0.00 | 0.00 | 62 | 1017.5 |
| 20260504130441 | 46 | 320 | 2.0 | 3.0 | 0.00 | 0.00 | 0.00 | 65 | 1017.4 |
| 20260504110328 | 45 | 34 | 0.0 | 0.0 | 0.00 | 0.00 | 0.00 | 67 | 1017.6 |
| 20260504100246 | 47 | 33 | 2.0 | 2.0 | 0.00 | 0.00 | 0.00 | 62 | 1017.8 |
| 20260504081639 | 50 | 51 | 13.0 | 15.0 | 0.00 | 0.00 | 0.00 | 51 | 1016.8 |
| 20260504081135 | 50 | 29 | 12.0 | 14.0 | 0.00 | 0.00 | 0.00 | 50 | 1016.9 |
| 20260504080632 | 50 | 41 | 13.0 | 16.0 | 0.00 | 0.00 | 0.00 | 49 | 1016.9 |
| 20260504080128 | 50 | 38 | 14.0 | 16.0 | 0.00 | 0.00 | 0.00 | 49 | 1017.1 |
| 20260504050445 | 57 | 43 | 11.0 | 13.0 | 0.00 | 0.00 | 0.00 | 38 | 1011.7 |
| 20260504045942 | 57 | 34 | 5.0 | 6.0 | 0.00 | 0.00 | 0.00 | 39 | 1011.5 |
| 20260504045437 | 57 | 29 | 6.0 | 7.0 | 0.00 | 0.00 | 0.00 | 38 | 1011.3 |
| 20260504044934 | 57 | 43 | 5.0 | 5.0 | 0.00 | 0.00 | 0.00 | 38 | 1011.3 |
| 20260504044432 | 57 | 29 | 5.0 | 6.0 | 0.00 | 0.00 | 0.00 | 38 | 1011.0 |
| 20260504043929 | 58 | 41 | 5.0 | 7.0 | 0.00 | 0.00 | 0.00 | 38 | 1010.8 |
| 20260504043426 | 58 | 17 | 5.0 | 7.0 | 0.00 | 0.00 | 0.00 | 38 | 1010.8 |
| 20260504042923 | 58 | 29 | 5.0 | 7.0 | 0.00 | 0.00 | 0.00 | 37 | 1010.5 |
| 20260504042420 | 59 | 13 | 5.0 | 6.0 | 0.00 | 0.00 | 0.00 | 36 | 1010.6 |
| 20260504041916 | 59 | 21 | 6.0 | 7.0 | 0.00 | 0.00 | 0.00 | 36 | 1010.4 |
| 20260504041412 | 59 | 40 | 6.0 | 7.0 | 0.00 | 0.00 | 0.00 | 35 | 1010.4 |
| 20260504040908 | 60 | 25 | 4.0 | 6.0 | 0.00 | 0.00 | 0.00 | 35 | 1010.0 |
| 20260504040406 | 60 | 36 | 8.0 | 9.0 | 0.00 | 0.00 | 0.00 | 36 | 1009.9 |
| 20260504035902 | 60 | 21 | 9.0 | 10.0 | 0.00 | 0.00 | 0.00 | 34 | 1009.9 |
| 20260504035400 | 60 | 19 | 9.0 | 11.0 | 0.00 | 0.00 | 0.00 | 35 | 1009.8 |
| 20260504034856 | 60 | 23 | 6.0 | 8.0 | 0.00 | 0.00 | 0.00 | 36 | 1009.8 |
| 20260504034354 | 60 | 49 | 8.0 | 10.0 | 0.00 | 0.00 | 0.00 | 35 | 1009.7 |
| 20260504033850 | 61 | 22 | 9.0 | 10.0 | 0.00 | 0.00 | 0.00 | 34 | 1009.5 |
| 20260504033349 | 62 | 26 | 9.0 | 10.0 | 0.00 | 0.00 | 0.00 | 34 | 1009.5 |
| 20260504032845 | 61 | 41 | 11.0 | 15.0 | 0.00 | 0.00 | 0.00 | 33 | 1009.3 |
| 20260504032342 | 61 | 32 | 7.0 | 8.0 | 0.00 | 0.00 | 0.00 | 32 | 1009.0 |
| 20260504031839 | 61 | 21 | 7.0 | 8.0 | 0.00 | 0.00 | 0.00 | 31 | 1008.8 |
| 20260504031336 | 62 | 27 | 6.0 | 7.0 | 0.00 | 0.00 | 0.00 | 29 | 1008.6 |
| 20260504030832 | 62 | 24 | 7.0 | 8.0 | 0.00 | 0.00 | 0.00 | 28 | 1008.6 |
| 20260504030330 | 59 | 40 | 11.0 | 13.0 | 0.00 | 0.00 | 0.00 | 30 | 1008.5 |
| 20260504025826 | 59 | 11 | 2.0 | 2.0 | 0.00 | 0.00 | 0.00 | 33 | 1008.7 |
| 20260504025323 | 59 | 15 | 2.0 | 2.0 | 0.00 | 0.00 | 0.00 | 32 | 1008.3 |